User: anonymous   Login
Location: Young's Pond
(41.2695°N, 72.7766°W)
Time: 20:05:07
(UTC-04:00)
Language:

CZ-4B R/B - Orbit

View from above orbital plane
View from above orbital plane
View from above satellite
View from above satellite

Ground track
Ground track

The orbit data is extracted from the following two-line orbital elements,

1 29093U 06015B   17147.92798046 +.00002415 +00000-0 +59061-4 0  9997
2 29093 097.4937 258.3509 0064961 032.0086 328.5079 15.39700313614312
Epoch (UTC): 27 May 2017 22:16:17
Eccentricity: 0.0064961
inclination: 97.4937°
perigee height: 402 km
apogee height: 491 km
right ascension of ascending node: 258.3509°
argument of perigee: 32.0086°
revolutions per day: 15.39700313
mean anomaly at epoch: 328.5079°
orbit number at epoch: 61431

The dashed part of the orbit path shows where the satellite is in the earth's shadow,  

DLR